Погода в Могоче

Погода в Могоче : погода сейчас, прогноз погоды и архив. Всё, что Вы хотите узнать о погоде в Могоче!

Хотите узнать прогноз погоды в Могоче? Тогда Вам сюда: Погода в Могоче

Поиск расширенной информации на нашем сайте:

Другие новости

Новости СМИ2

Главная страница сайта

Новости сайта

03.07.2017

Напоминаем, что на нашем специализированном сайте Метеоцентр.Азия вы можете получить высокодетализированные автоматические прогнозы погоды по пунктам России, СНГ и мира в авиационном формате (включающие направление и скорость ветра, видимость, явления погоды, количество и форму облачности, нижнюю и верхнюю границу облачности).

Рекомендуем: предлагаются помещения продажа офиса в БЦ Eurasia Tower в деловом центре Москва Сити

Погода в Могоче - сегодня

Время (UTC), дата Ветер
(°,м/с) 
Видим.   Явления Облачность Т
(°С)
Тd
(°С)
f(%) Тe
(°С)
Pmin
(гПа)
dP
(гПа)
Po
(мм)
O2
(г/м3)
Тmin Tmax R s Состояние
почвы
21 13.08.18 тихо ()   1000 м  туман местами  4/0 средняя, верхняя 
[Ac cast|Ci fib]
+7.9 +6.7 92 +8  1013.9  0.7  705  275           
00 14.08.18 тихо ()   20000 м  {туман}  ясно 
+15.6 +11.3 76 +20  1012.2  0.4  706  267  +7.5        влажная 
03 14.08.18 120 (ЮВ) 20000 м    3/3 1000 м кучево-дожд. 
[Cb calv]
+27 +15.4 49 +38  1008.7  -0.6  705  255           
06 14.08.18 190 (Ю) 20000 м  гроза без осадков  8/8 600 м кучево-дожд. 
[Cb calv]
+28.9 +13.1 38 +36  1007.3  -0.9  705  254           
12 14.08.18 090 (В) 20000 м  {гроза}  6/6 1000 м 
[Sc diur, vesp]
+20.5 +14.6 69 +30  1013.1  2.7  707  262    +30.6       
15 14.08.18 тихо ()   20000 м    1/1 1000 м 
[Sc diur, vesp]
+14.8 +12.8 88 +21  1016.8  2.1  709  268           
18 14.08.18 310 (СЗ) н/о  туман местами  ясно 
+10.8 +9.6 92 +14  1019.3  1.3  710  273           
21 14.08.18 280 (З) 20000 м    10/10 1000 м кучево-дожд. 
[Cb calv]
+12.4 +11.1 92 +18  1019.8  0.9  710  272           
00 15.08.18 320 (СЗ) 20000 м    10/10 600 м кучево-дожд. 
[Cb calv]
+14.5 +12.5 88 +22  1020.2  0.9  711  270  +10.2        влажная 
03 15.08.18 110 (В) 20000 м    10/10 600 м кучево-дожд. 
[Cb calv]
+17.5 +14.2 81 +28  1019.5  0.1  711  266           
06 15.08.18 070 (В) 20000 м    ясно 
+23 +15.9 64 +35  1016.5  -1.5  710  260           
09 15.08.18 120 (ЮВ) 20000 м    8/0 верхняя 
[Ci]
+24.8 +16.3 59 +37  1014.5  -1.4  709  258           
15 15.08.18 тихо ()   н/о  туман местами  8/0 верхняя 
[Cs]
+14.5 +13.2 92 +22  1016.6  0.1  709  268           
18 15.08.18 тихо ()   н/о  туман местами  10/0 верхняя 
[Cs]
+13.7 +12.7 94 +20  1016.1  -0.7  708  269           
21 15.08.18 030 (СВ) 0200 м  туман  ?/?  
+13.5 +12.6 94 +21  1015.3  -0.8  707  269           
00 16.08.18 110 (В) 0200 м  туман  ?/?  
+14.9 +14 94 +25  1014.4  -0.4  707  267  +13.4        влажная 
03 16.08.18 160 (Ю) 20000 м  {туман}  10/8 1000 м кучево-дожд., верхняя 
[Cb calv|Ci ing]
+24.9 +16.4 59 +38  1009.9  -1.8  706  257           
09 16.08.18 150 (ЮВ) 20000 м    10/1 1000 м средняя, верхняя 
[Cu med, cong|Ac lent|Ci ing]
+25.2 +13.6 49 +33  1005  -2  702  256           
12 16.08.18 140 (ЮВ) 4{10}  20000 м    10/6 600 м кучево-дожд., средняя 
[Cb calv|Ac lent]
+23.4 +13.1 52 +31  1004.3  -1.1  701  258    +26.2       
18 16.08.18 120 (ЮВ) 20000 м  {ливн. осадки}  10/8 600 м кучево-дожд., средняя 
[Cb calv|Ac lent]
+16.4 +14.8 90 +28  1004.8  -1.1  701  263           
21 16.08.18 270 (З) 20000 м    8/5 600 м кучево-дожд., средняя 
[Cb calv|Ac As]
+15 +13.8 93 +24  1004.1  -1  700  264           
00 17.08.18 250 (З) 20000 м    6/6 600 м 
[Cu med, cong]
+17.5 +13.4 77 +27  1003.5  700  262  +14.5      влажная 
03 17.08.18 290 (З) 20000 м    8/8 600 м кучево-дожд. 
[Cb calv]
+20.7 +11.8 57 +26  1001.9  -0.9  699  260           
06 17.08.18 180 (Ю) 20000 м    8/8 600 м кучево-дожд. 
[Cb calv]
+22.7 +11.1 48 +27  1000.3  -1  699  258           
09 17.08.18 220 (ЮЗ) 20000 м    8/8 600 м кучево-дожд. 
[Cb calv]
+20.9 +8.2 44 +21  1000.5  -0.3  698  260           
Время (UTC), дата Ветер
(°,м/с) 
Видим.   Явления Облачность Т
(°С)
Тd
(°С)
f(%) Тe
(°С)
Pmin
(гПа)
dP
(гПа)
Po
(мм)
O2
(г/м3)
Тmin Tmax R s Состояние
почвы

Для получения пояснительной информации подведите курсор к названию столбца.

ПОГОДА в Могоче - архив

Всё, что Вы хотите узнать о погоде в Могоче - удобно и подробно!

Выберите нужную дату (начиная с 1 января 2015* года) и нажмите кнопку "Найти".
Будут отображены архивные сводки погоды по пункту Могоча, начиная с указанной даты.


Отображать данные в формате CSV (для использования в таблицах Excel)


Внимание! Наш архив погоды предназначен исключительно для личного некоммерческого использования в познавательных целях. Если Вам необходимы официальные справки о состоянии погоды (для производственных, юридических, коммерческих и т.п. целей), обращайтесь в органы Росгидромета.

*Примечание: данная дата относится к архиву по метеостанциям СССР (Россия, СНГ, Балтия).
Архив по метеостанциям Зарубежной Европы и Азии (кроме Китая) хранится 10 дней, по другим регионам земного шара (Китай, Африка, Америка, Австралия, Океания) - 1 день.

Могоча - район местоположения метеостанции


Название, широта, долгота, высота метеостанции:
Могоча 53.8°ш. 119.7°д. 625 м над ур. моря [Российская Федерация]

Дополнительная информация

В oтличие oт бoльшинства пoгoдных сайтoв мы публикуем пoдрoбную метеoинфoрмацию в детальнoм прoфессиoнальнoм фoрмате.

Характеристики температуры и влажнoсти вoздуха измеряются на высoте 2 м в тени вдали oт зданий и деревьев.
Скoрoсть ветра измеряется на высoте 10 м (на урoвне рoста челoвека скoрoсть ветра ниже в 1.5-2 раза). Если метеoстанция нахoдится в гoрoде или в лесу, тo скoрoсть ветра занижена на 2-4 м/с пo сравнению с oткрытым местoм. Скoрoсть ветра над акватoриями крупных рек и oзёр, а также на вершинах хoлмoв на 2-5 м/с выше, чем в oбычных услoвиях.
Атмoсфернoе давление в разных тoчках местнoсти мoжет значительнo oтличаться oт давления на метеoстанции, в зависимoсти oт услoвий рельефа (при пoдъёме на 10 м давление пoнижается примернo на 1 мм рт.ст.).